Tracking 32139 objects as of 16-Nov-2025
HD Live streaming from Space Station
objects crossing your sky now

CZ-8 R/B

Track CZ-8 R/B now!
10-day predictions


NORAD ID: 65314
Int'l Code: 2025-187K
Perigee: 713.4 km
Apogee: 880.7 km
Inclination: 50.0 °
Period: 100.7 minutes
Semi major axis: 7168 km
RCS: Unknown
Launch date: August 25, 2025
Source: People's Republic of China (PRC)
Launch site: Wenchang Satellite Launch Center (WSC)

Note: This is a ROCKET BODY
Your satellite tracking list
Your tracking list is empty




NASA's NSSDC Master Catalog

Two Line Element Set (TLE):
1 65314U 25187K   25319.78710810  .00000546  00000-0  25177-3 0  9994
2 65314  50.0071 222.3535 0116705  12.0775 348.2897 14.30535018 11742
Source of the keplerian elements: AFSPC